Location: Madrid
(40.4000°N, 3.6830°W)
Time: 13:12:11
(UTC+01:00)

ISS - Pass Details

Date: 04 December 2019
Orbit: 411 x 421 km, 51.6° (Epoch: 11 December)

Event Time Altitude Azimuth Distance (km) Brightness Sun altitude
Rises 19:59:56 0° 312° (NW) 2,362 0.6 -24.4°
Reaches altitude 10° 20:02:15 10° 326° (NW) 1,499 -0.7 -24.8°
Enters shadow 20:02:34 12° 329° (NNW) 1,393 -0.9 -24.9°
